Content
SEND FEEDBACK

Daily
Averages
Monthly
Summary
Honduras

TEGUCIGALPA, HONDURAS


Home > Central America > Honduras
Elevation: 3260 feet     Latitude: 14 03N     Longitude: 087 13W

WEATHER
 
SELECT A DAY
Number of Records: 56,677;   Date Range: 7/9/96 - 9/29/14
 
SHARE

PRINT THIS DATA

[ ← Previous Day ]
WEATHER ALMANAC - FEBRUARY 7, 2013
[ Next Day → ]
[ °C ]   °F
Weather ElementAverageHighLow
Temperature68.7 °F86 °F (2:00 pm) (9:00 am)
Dewpoint55.7 °F60.8 °F (6:00 pm) (7:00 pm)
Humidity65 %94 % (7:00 am)27 % (3:00 pm)
Barometer27.85 in30.12 in (7:00 am) (7:00 pm)
Wind Speed4.4 mph9.2 mph (11:00 am)
Weather ElementAverage
Visibility6.6 mi
Wind DirectionESE (106.3 °)

Weather ElementTotal
Precipitation---
Heating Degree Days22 (Base 65)
Averaged from 28 records on February 7, 2013
WEATHER CONDITIONS BREAKOUT
WIND DIRECTION BREAKOUT
WEATHER BY HOUR - FEBRUARY 7, 2013
[ °C ]   °F
Local TimeTemperatureDewpointHumidityBarometerVisibilityWind DirectionWind SpeedGust SpeedPrecipitationEventsConditions
12:00 AM62.6 °F57.2 °F82 %30.09 in6.2 miWSW (240°)3.5 mphClear
1:00 AM60.8 °F57.2 °F88 %30.09 in6.2 miWest (270°)2.3 mphClear
2:00 AM60.8 °F57.2 °F88 %30.06 in6.2 miSW (230°)2.3 mphClear
3:00 AM59.0 °F56.0 °F85 %29.99 in6.0 miCalmHaze
3:00 AM59.0 °F55.4 °F88 %30.06 in6.2 miCalmPartly Cloudy
4:00 AM59.0 °F55.4 °F88 %30.06 in6.2 miCalmPartly Cloudy
5:00 AM60.8 °F57.2 °F88 %30.09 in6.2 miWest (270°)6.9 mphMostly Cloudy
6:00 AM60.8 °F57.2 °F88 %30.09 in6.2 miSSW (200°)4.6 mphPartly Cloudy
7:00 AM57.2 °F55.4 °F94 %30.12 in6.2 miCalmPartly Cloudy
8:00 AM66.2 °F59.0 °F78 %6.2 miCalmPartly Cloudy
9:00 AM0.0 °F0.0 °FNorth
10:00 AM77.0 °F59.0 °F54 %30.12 in6.2 miENE (60°)6.9 mphPartly Cloudy
11:00 AM80.6 °F57.2 °F45 %30.09 in6.2 miNE (50°)9.2 mphPartly Cloudy
12:00 PM82.4 °F55.4 °F39 %30.06 in6.2 miENE (70°)4.6 mphPartly Cloudy
12:00 PM83.0 °F56.0 °F29 %29.83 in11.0 miENE (70°)4.6 mphHaze
1:00 PM84.2 °F55.4 °F37 %30.04 in6.2 miEast (90°)5.8 mphPartly Cloudy
2:00 PM86.0 °F57.2 °F37 %30.01 in6.2 miENE (60°)6.9 mphScattered Clouds
3:00 PM86.0 °F57.0 °F27 %29.73 in11.0 miEast (80°)5.8 mphHaze
3:00 PM86.0 °F57.2 °F37 %29.98 in6.2 miEast (80°)5.8 mphScattered Clouds
4:00 PM82.4 °F59.0 °F45 %29.98 in6.2 miEast (90°)6.9 mphScattered Clouds
5:00 PM78.8 °F59.0 °F51 %30.01 in6.2 miEast (100°)6.9 mphScattered Clouds
6:00 PM75.2 °F60.8 °F61 %30.04 in6.2 miEast (90°)5.8 mphScattered Clouds
6:00 PM76.0 °F60.0 °F49 %29.82 in8.0 miEast (90°)5.8 mphHaze
7:00 PM73.4 °F60.8 °F65 %30.04 in6.2 miNNE (20°)6.9 mphClear
8:00 PM69.8 °F60.8 °F73 %30.06 in6.2 miNNE (20°)3.5 mphPartly Cloudy
9:00 PM66.2 °F59.0 °F78 %30.09 in6.2 miSW (230°)4.6 mphPartly Cloudy
10:00 PM66.2 °F59.0 °F78 %30.09 in6.2 miSW (220°)4.6 mphPartly Cloudy
11:00 PM64.4 °F59.0 °F83 %30.09 in6.2 miWSW (240°)4.6 mphClear
Hourly data recorded from MHTG, located miles away from Tegucigalpa, Honduras







STORIES FROM OUR PARTNERS